Retour au catalogue

COSMOS 1275 DEB

ActifPO
NORAD 42143·DEBRIS·🇷🇺 Russia

Lancé Jun 4, 1981 depuis Plesetsk Cosmodrome

Loading…

Prochains Passages (prochaines 24 heures)

TLE

VieillissantSource: Space-Track

Époque: Sep 9, 2026, 09:01 UTC

1 42143U 81053RF  26252.37631221  .00000963  00000-0  86175-3 0  9991
2 42143  83.0149 126.6283 0093941 137.8069 223.0371 13.81359996642519

Suivez COSMOS 1275 DEB en temps réel avec AllMySat

Download on the App Store